Mackall AAF, NC

2:09 AM EST on December 12, 2017 (GMT -0500)
Mackall Army Air Field

Weather History for KHFF - November, 2014

Change the Weather History Date:

Saturday, November 22, 2014

  Actual Average Record
Temperature  
Mean Temperature 37 °F -  
Max Temperature 55 °F 63 °F 77 °F (2011)
Min Temperature 19 °F 38 °F 17 °F (2008)
Degree Days  
Heating Degree Days 28    
Moisture  
Dew Point 23 °F    
Average Humidity 57    
Maximum Humidity 95    
Minimum Humidity 23    
Precipitation  
Precipitation 0.00 in - - ()
Sea Level Pressure  
Sea Level Pressure 30.48 in    
Wind  
Wind Speed 2 mph (North)    
Max Wind Speed 7 mph    
Max Gust Speed -    
Visibility 10 miles    
Events      
Averages and records for this station are not official NWS values.
T = Trace of Precipitation, MM = Missing Value Source: NWS Daily Summary

Daily Weather History Graph

Daily Weather History Graph

Search for Another Location

Airport or City:

Trip Planner

Search our weather history database for the weather conditions in past years. The results will help you decide how hot, cold, wet, or windy it might be!

Date:

Astronomy

Nov. 22, 2014 Rise Set
Actual Time 6:59 AM EST 5:08 PM EST
Civil Twilight 6:32 AM EST 5:36 PM EST
Nautical Twilight 6:01 AM EST 6:06 PM EST
Astronomical Twilight 5:30 AM EST 6:37 PM EST
Moon 6:55 AM EST (11/22) 5:36 PM EST (11/22)
Length of Visible Light 11h 04m
Length of Day
10h 09m
New Moon, 0% of the Moon is Illuminated
Nov 22
New Moon
Nov 29
First Quarter
Dec 6
Full
Dec 14
Last Quarter
Dec 21
New

Hourly Weather History & Observations

Time (EST) Temp. Windchill Dew Point Humidity Pressure Visibility Wind Dir Wind Speed Gust Speed Precip Events Conditions
12:56 AM 23.4 °F - 20.1 °F 87% 30.57 in 10.0 mi Variable 1.2 mph - N/A   Clear
1:56 AM 23.4 °F - 20.1 °F 87% 30.57 in 10.0 mi NNW 2.3 mph - N/A   Clear
3:56 AM 22.6 °F - 19.6 °F 88% 30.58 in 10.0 mi NE 1.2 mph - N/A   Clear
4:56 AM 20.3 °F - 18.7 °F 93% 30.58 in 10.0 mi NW 2.3 mph - N/A   Clear
5:56 AM 20.3 °F - 18.5 °F 93% 30.59 in 10.0 mi SW 1.2 mph - N/A   Clear
6:56 AM 19.9 °F 14.9 °F 18.7 °F 95% 30.60 in 10.0 mi NNW 3.5 mph - N/A   Clear
7:56 AM 25.0 °F - 21.9 °F 88% 30.61 in 10.0 mi NNW 2.3 mph - N/A   Clear
8:56 AM 32.7 °F - 23.2 °F 68% 30.61 in 10.0 mi North 2.3 mph - N/A   Clear
9:56 AM 41.4 °F 37.6 °F 17.4 °F 38% 30.60 in 10.0 mi SSE 5.8 mph - N/A   Clear
10:54 AM 44.6 °F 43.1 °F 19.4 °F 37% 30.56 in 10.0 mi SSE 3.5 mph - N/A   Clear
10:56 AM 45.3 °F - 20.3 °F 37% 30.58 in 10.0 mi Variable 1.2 mph - N/A   Clear
11:23 AM 48.2 °F - 19.4 °F 32% 30.54 in 10.0 mi East 4.6 mph - N/A   Clear
11:54 AM 48.2 °F - 19.4 °F 32% 30.52 in 10.0 mi Variable 2.3 mph - N/A   Clear
11:56 AM 48.7 °F - 19.2 °F 31% 30.54 in 10.0 mi Variable 2.3 mph - N/A   Clear
12:14 PM 50.0 °F - 17.6 °F 28% 30.50 in 10.0 mi Variable 4.6 mph - N/A   Clear
12:49 PM 53.6 °F - 19.4 °F 26% 30.48 in 10.0 mi SSW 3.5 mph - N/A   Clear
12:56 PM 52.9 °F - 19.8 °F 27% 30.50 in 10.0 mi Variable 1.2 mph - N/A   Clear
1:22 PM 53.6 °F - 17.6 °F 24% 30.46 in 10.0 mi South 4.6 mph - N/A   Clear
1:56 PM 55.0 °F - 18.1 °F 24% 30.47 in 10.0 mi Variable 4.6 mph - N/A   Clear
2:20 PM 55.4 °F - 17.6 °F 23% 30.43 in 10.0 mi SSW 3.5 mph - N/A   Clear
2:56 PM 55.6 °F - 18.5 °F 23% 30.44 in 10.0 mi SSW 3.5 mph - N/A   Clear
3:24 PM 55.4 °F - 19.4 °F 25% 30.40 in 10.0 mi Variable 3.5 mph - N/A   Clear
3:56 PM 55.6 °F - 19.4 °F 24% 30.42 in 10.0 mi ESE 6.9 mph - N/A   Clear
4:56 PM 52.3 °F - 23.7 °F 33% 30.41 in 10.0 mi ESE 3.5 mph - N/A   Clear
5:56 PM 40.8 °F - 31.6 °F 70% 30.40 in 10.0 mi South 2.3 mph - N/A   Clear
6:56 PM 38.5 °F - 29.3 °F 70% 30.39 in 10.0 mi East 1.2 mph - N/A   Clear
7:56 PM 35.6 °F - 29.1 °F 77% 30.40 in 6.0 mi Calm Calm - N/A   Clear
8:56 PM 35.6 °F - 29.3 °F 78% 30.39 in 10.0 mi Calm Calm - N/A   Clear
9:54 PM 35.6 °F - 30.2 °F 81% 30.35 in 9.0 mi NNW 1.2 mph - N/A   Clear
9:56 PM 34.9 °F - 30.7 °F 85% 30.37 in 9.0 mi North 1.2 mph - N/A   Clear
10:56 PM 35.4 °F - 31.8 °F 87% 30.36 in 10.0 mi North 1.2 mph - N/A   Clear
11:52 PM 35.6 °F - 32.0 °F 87% 30.32 in 10.0 mi NNW 2.3 mph - N/A   Clear
11:56 PM 35.1 °F - 32.4 °F 90% 30.34 in 10.0 mi NNW 2.3 mph - N/A   Clear